Date String (YYYY-MM-DD hh:mm:ss) UTC,Instrument flags,absolute air pressure of the measurement (hPa),sample flow rate (lpm),inlet stack bypass flow (lpm),air temperature of the measurement (°C),ambient temperature measured by the external sensor (°C),aerosol sample conditioner tube jacket temperature (°C),OPC LED temperature (°C),internal box temperature (°C),relative humidity of the measurement (%),span deviation,mass concentration of particles derived from Lorenz-Mie calculation of OPC scattering (μg/m³),mass concentration of particles derived from Lorenz-Mie calculation of OPC scattering (μg/m³),mass concentration of particles derived from Lorenz-Mie calculation of OPC scattering (μg/m³)
DateTimeUTC,F1_M11,P_M11,Q1_M11,Q2_M11,T1_M11,T2_M11,T3_M11,T4_M11,T5_M11,U1_M11,ZSPAN_M11,X0_M11,X2_M11,X1_M11
2024-03-11 15:00:00,SystemResetWarning,0825.9,5.00,000.00,019.4,018.7,000.0,027.8,021.1,08.4,0000.0,0014.13,0003.96,0001.72
2024-03-11 15:01:00,SystemResetWarning,0825.9,5.00,000.00,019.4,018.7,000.0,027.8,021.1,08.4,0000.0,0014.05,0004.07,0001.73
2024-03-11 15:02:00,SystemResetWarning,0825.9,5.00,000.00,019.4,018.7,000.0,027.8,021.1,08.7,0000.0,0013.96,0004.11,0001.73
2024-03-11 15:03:00,SystemResetWarning,0825.9,5.00,000.00,019.4,018.7,000.0,027.8,021.1,08.7,0000.0,0014.30,0004.12,0001.72
2024-03-11 15:04:00,SystemResetWarning,0825.9,5.00,000.00,019.4,018.7,000.0,027.8,021.1,09.0,0000.0,0015.06,0004.20,0001.74
2024-03-11 15:05:00,SystemResetWarning,0825.9,5.00,000.00,019.4,018.7,000.0,027.8,021.1,08.8,0000.0,0015.27,0004.18,0001.72
2024-03-11 15:06:00,SystemResetWarning,0825.8,4.99,000.00,019.4,018.7,000.0,027.8,021.1,08.5,0000.0,0014.87,0004.15,0001.71
2024-03-11 15:07:00,SystemResetWarning,0825.9,5.00,000.00,019.4,018.7,000.0,027.8,021.1,08.4,0000.0,0014.43,0004.15,0001.73
2024-03-11 15:08:00,SystemResetWarning,0825.9,5.00,000.00,019.4,018.7,000.0,027.8,021.1,08.4,0000.0,0013.73,0004.08,0001.70
2024-03-11 15:09:00,SystemResetWarning,0825.9,5.00,000.00,019.4,018.7,000.0,027.8,021.1,08.6,0000.0,0013.40,0004.00,0001.68
2024-03-11 15:10:00,SystemResetWarning,0825.9,5.00,000.00,019.4,018.7,000.0,027.8,021.1,08.7,0000.0,0012.98,0003.97,0001.68
2024-03-11 15:11:00,SystemResetWarning,0825.9,5.00,000.00,019.4,018.7,000.0,027.8,021.1,08.9,0000.0,0012.75,0003.92,0001.66
2024-03-11 15:12:00,SystemResetWarning,0825.9,5.01,000.00,019.4,018.6,000.0,027.8,021.0,08.7,0000.0,0012.93,0003.84,0001.66
2024-03-11 15:13:00,SystemResetWarning,0825.9,5.00,000.00,019.4,018.6,000.0,027.8,021.1,08.5,0000.0,0012.31,0003.76,0001.67
2024-03-11 15:14:00,SystemResetWarning,0825.9,5.01,000.00,019.3,018.6,000.0,027.8,021.0,08.6,0000.0,0011.82,0003.83,0001.71
2024-03-11 15:15:00,SystemResetWarning,0825.8,4.99,000.00,019.3,018.6,000.0,027.8,021.0,09.0,0000.0,0011.08,0003.78,0001.72
2024-03-11 15:16:00,SystemResetWarning,0825.8,4.99,000.00,019.3,018.6,000.0,027.8,021.0,09.1,0000.0,0011.57,0003.80,0001.73
2024-03-11 15:17:00,SystemResetWarning,0825.7,5.00,000.00,019.3,018.6,000.0,027.8,021.0,08.8,0000.0,0011.85,0003.84,0001.77
2024-03-11 15:18:00,SystemResetWarning,0825.7,5.01,000.00,019.3,018.6,000.0,027.8,021.0,08.7,0000.0,0012.22,0003.83,0001.79
2024-03-11 15:19:00,SystemResetWarning,0825.7,5.00,000.00,019.3,018.5,000.0,027.8,021.0,08.9,0000.0,0012.53,0003.83,0001.80
2024-03-11 15:20:00,SystemResetWarning,0825.6,5.00,000.00,019.3,018.5,000.0,027.8,021.0,09.2,0000.0,0012.83,0003.87,0001.82
2024-03-11 15:21:00,SystemResetWarning,0825.6,5.00,000.00,019.3,018.5,000.0,027.8,021.0,09.1,0000.0,0014.14,0003.87,0001.81
2024-03-11 15:22:00,SystemResetWarning,0825.6,5.00,000.00,019.3,018.5,000.0,027.8,021.0,09.3,0000.0,0013.81,0003.87,0001.82
2024-03-11 15:23:00,SystemResetWarning,0825.6,4.99,000.00,019.3,018.5,000.0,027.8,021.0,09.2,0000.0,0013.38,0003.87,0001.81
2024-03-11 15:24:00,SystemResetWarning,0825.6,5.01,000.00,019.3,018.5,000.0,027.8,021.0,09.2,0000.0,0014.20,0003.86,0001.78
2024-03-11 15:25:00,SystemResetWarning,0825.6,5.00,000.00,019.3,018.5,000.0,027.8,021.0,09.5,0000.0,0014.40,0003.80,0001.75
2024-03-11 15:26:00,SystemResetWarning,0825.6,4.99,000.00,019.3,018.5,000.0,027.8,021.0,09.3,0000.0,0015.72,0003.78,0001.72
2024-03-11 15:27:00,SystemResetWarning,0825.6,5.00,000.00,019.3,018.5,000.0,027.8,021.0,09.4,0000.0,0015.39,0003.77,0001.71
2024-03-11 15:28:00,SystemResetWarning,0825.6,5.00,000.00,019.3,018.5,000.0,027.8,021.0,09.4,0000.0,0015.34,0003.82,0001.68
2024-03-11 15:29:00,SystemResetWarning,0825.6,5.01,000.00,019.3,018.6,000.0,027.8,021.0,09.6,0000.0,0015.21,0003.84,0001.67
2024-03-11 15:30:00,SystemResetWarning,0825.6,5.01,000.00,019.3,018.6,000.0,027.8,021.0,09.5,0000.0,0015.09,0003.86,0001.68
2024-03-11 15:31:00,SystemResetWarning,0825.6,4.99,000.00,019.3,018.6,000.0,027.8,021.0,09.6,0000.0,0014.82,0003.82,0001.68
2024-03-11 15:32:00,SystemResetWarning,0825.6,4.99,000.00,019.3,018.6,000.0,027.8,021.0,09.5,0000.0,0013.36,0003.81,0001.67
2024-03-11 15:33:00,SystemResetWarning,0825.7,5.00,000.00,019.3,018.6,000.0,027.8,021.0,09.6,0000.0,0013.12,0003.84,0001.66
2024-03-11 15:34:00,SystemResetWarning,0825.7,5.00,000.00,019.3,018.6,000.0,027.8,021.0,10.6,0000.0,0012.96,0003.86,0001.65
2024-03-11 15:35:00,SystemResetWarning,0825.7,5.00,000.00,019.3,018.6,000.0,027.8,021.0,10.7,0000.0,0012.29,0003.90,0001.66
2024-03-11 15:36:00,SystemResetWarning,0825.7,5.00,000.00,019.3,018.6,000.0,027.8,021.0,10.6,0000.0,0012.13,0003.91,0001.66
2024-03-11 15:37:00,SystemResetWarning,0825.8,5.00,000.00,019.3,018.6,000.0,027.8,021.0,10.3,0000.0,0011.28,0003.95,0001.67
2024-03-11 15:38:00,SystemResetWarning,0825.8,5.00,000.00,019.3,018.6,000.0,027.8,021.0,10.3,0000.0,0010.73,0004.01,0001.68
2024-03-11 15:39:00,SystemResetWarning,0825.8,4.99,000.00,019.3,018.6,000.0,027.8,021.0,10.2,0000.0,0010.55,0003.96,0001.68
2024-03-11 15:40:00,SystemResetWarning,0825.8,5.00,000.00,019.3,018.6,000.0,027.8,021.0,10.2,0000.0,0010.25,0003.94,0001.67
2024-03-11 15:41:00,SystemResetWarning,0825.9,5.01,000.00,019.3,018.6,000.0,027.8,021.0,09.9,0000.0,0010.33,0003.93,0001.66
2024-03-11 15:42:00,SystemResetWarning,0825.9,5.01,000.00,019.3,018.7,000.0,027.8,021.0,10.2,0000.0,0010.36,0003.92,0001.64
2024-03-11 15:43:00,SystemResetWarning,0825.9,4.99,000.00,019.3,018.7,000.0,027.8,021.0,10.0,0000.0,0010.88,0003.96,0001.66
2024-03-11 15:44:00,SystemResetWarning,0825.9,4.99,000.00,019.3,018.7,000.0,027.8,021.1,10.1,0000.0,0010.88,0003.89,0001.66
2024-03-11 15:45:00,SystemResetWarning,0825.9,5.00,000.00,019.3,018.7,000.0,027.8,021.1,09.6,0000.0,0011.38,0003.88,0001.68
2024-03-11 15:46:00,SystemResetWarning,0825.9,5.00,000.00,019.3,018.7,000.0,027.8,021.1,09.6,0000.0,0011.80,0003.86,0001.68
2024-03-11 15:47:00,SystemResetWarning,0825.9,5.00,000.00,019.3,018.7,000.0,027.8,021.1,09.6,0000.0,0011.46,0003.79,0001.68
2024-03-11 15:48:00,SystemResetWarning,0825.9,5.00,000.00,019.3,018.7,000.0,027.8,021.1,09.8,0000.0,0011.37,0003.78,0001.66
2024-03-11 15:49:00,SystemResetWarning,0825.9,5.00,000.00,019.3,018.7,000.0,027.8,021.1,10.4,0000.0,0010.88,0003.65,0001.65
2024-03-11 15:50:00,SystemResetWarning,0825.9,4.99,000.00,019.4,018.7,000.0,027.8,021.1,10.1,0000.0,0010.77,0003.61,0001.63
2024-03-11 15:51:00,SystemResetWarning,0825.9,4.99,000.00,019.4,018.7,000.0,027.8,021.1,09.9,0000.0,0011.16,0003.60,0001.63
2024-03-11 15:52:00,SystemResetWarning,0825.8,5.01,000.00,019.4,018.7,000.0,027.8,021.1,09.9,0000.0,0011.31,0003.64,0001.65
2024-03-11 15:53:00,SystemResetWarning,0825.9,5.01,000.00,019.4,018.7,000.0,027.8,021.1,09.8,0000.0,0011.16,0003.65,0001.69
2024-03-11 15:54:00,SystemResetWarning,0825.9,5.00,000.00,019.4,018.7,000.0,027.8,021.1,10.0,0000.0,0010.75,0003.65,0001.71
2024-03-11 15:55:00,SystemResetWarning,0825.9,5.00,000.00,019.4,018.7,000.0,027.8,021.1,10.2,0000.0,0010.97,0003.74,0001.73
2024-03-11 15:56:00,SystemResetWarning,0825.9,5.00,000.00,019.4,018.7,000.0,027.8,021.1,09.9,0000.0,0010.67,0003.81,0001.77
2024-03-11 15:57:00,SystemResetWarning,0825.9,5.00,000.00,019.4,018.7,000.0,027.8,021.1,10.2,0000.0,0010.22,0003.87,0001.81
2024-03-11 15:58:00,SystemResetWarning,0825.9,5.00,000.00,019.4,018.8,000.0,027.8,021.1,09.9,0000.0,0010.41,0003.94,0001.83
2024-03-11 15:59:00,SystemResetWarning,0825.9,5.00,000.00,019.4,018.8,000.0,027.8,021.1,09.9,0000.0,0010.72,0003.92,0001.85
